Time,TemperatureF,DewpointF,PressureIn,WindDirection,WindDirectionDegrees,WindSpeedMPH,WindSpeedGustMPH,Humidity,HourlyPrecipIn,Conditions,Clouds,dailyrainin,SoftwareType,DateUTC
2013-01-03 00:12:00,39.0,35.0,29.56,North,-999,-999.0,-999.0,84,0.00,,,0.00,,2013-01-03 08:12:00,
2013-01-03 00:22:00,39.0,35.0,29.56,North,-999,-999.0,-999.0,84,0.00,,,0.00,,2013-01-03 08:22:00,
2013-01-03 00:32:00,39.0,35.0,29.56,North,-999,-999.0,-999.0,84,0.00,,,0.00,,2013-01-03 08:32:00,
2013-01-03 00:42:00,39.0,35.0,29.56,North,-999,-999.0,-999.0,84,0.00,,,0.00,,2013-01-03 08:42:00,
2013-01-03 01:12:00,39.0,34.0,29.55,North,-999,-999.0,-999.0,84,0.00,,,0.00,,2013-01-03 09:12:00,
2013-01-03 01:22:00,39.0,34.0,29.55,North,-999,-999.0,-999.0,84,0.00,,,0.00,,2013-01-03 09:22:00,
2013-01-03 01:33:00,39.0,34.0,29.55,North,-999,-999.0,-999.0,84,0.00,,,0.00,,2013-01-03 09:33:00,
2013-01-03 01:42:00,39.0,34.0,29.55,North,-999,-999.0,-999.0,84,0.00,,,0.00,,2013-01-03 09:42:00,
2013-01-03 02:12:00,39.0,35.0,29.56,North,-999,-999.0,-999.0,86,0.00,,,0.00,,2013-01-03 10:12:00,
2013-01-03 02:22:00,39.0,35.0,29.56,North,-999,-999.0,-999.0,86,0.00,,,0.00,,2013-01-03 10:22:00,
2013-01-03 02:32:00,39.0,35.0,29.56,North,-999,-999.0,-999.0,86,0.00,,,0.00,,2013-01-03 10:32:00,
2013-01-03 02:42:00,39.0,35.0,29.56,North,-999,-999.0,-999.0,86,0.00,,,0.00,,2013-01-03 10:42:00,
2013-01-03 03:12:00,38.0,34.0,29.58,North,-999,-999.0,-999.0,85,0.00,,,0.00,,2013-01-03 11:12:00,
2013-01-03 03:22:00,38.0,34.0,29.58,North,-999,-999.0,-999.0,85,0.00,,,0.00,,2013-01-03 11:22:00,
2013-01-03 03:33:00,38.0,34.0,29.58,North,-999,-999.0,-999.0,85,0.00,,,0.00,,2013-01-03 11:33:00,
2013-01-03 03:42:00,38.0,34.0,29.58,North,-999,-999.0,-999.0,85,0.00,,,0.00,,2013-01-03 11:42:00,
2013-01-03 04:12:00,37.0,34.0,29.58,North,-999,-999.0,-999.0,89,0.00,,,0.00,,2013-01-03 12:12:00,
2013-01-03 04:22:00,37.0,34.0,29.58,North,-999,-999.0,-999.0,89,0.00,,,0.00,,2013-01-03 12:22:00,
2013-01-03 04:32:00,37.0,34.0,29.58,North,-999,-999.0,-999.0,89,0.00,,,0.00,,2013-01-03 12:32:00,
2013-01-03 04:42:00,37.0,34.0,29.58,North,-999,-999.0,-999.0,89,0.00,,,0.00,,2013-01-03 12:42:00,
2013-01-03 05:12:00,37.0,33.0,29.57,North,-999,-999.0,-999.0,86,0.00,,,0.00,,2013-01-03 13:12:00,
2013-01-03 05:22:00,37.0,33.0,29.57,North,-999,-999.0,-999.0,86,0.00,,,0.00,,2013-01-03 13:22:00,
2013-01-03 05:32:00,37.0,33.0,29.57,North,-999,-999.0,-999.0,86,0.00,,,0.00,,2013-01-03 13:32:00,
2013-01-03 05:42:00,37.0,33.0,29.57,North,-999,-999.0,-999.0,86,0.00,,,0.00,,2013-01-03 13:42:00,
2013-01-03 06:12:00,37.0,33.0,29.59,North,-999,-999.0,-999.0,87,0.00,,,0.00,,2013-01-03 14:12:00,
2013-01-03 06:22:00,37.0,33.0,29.59,North,-999,-999.0,-999.0,87,0.00,,,0.00,,2013-01-03 14:22:00,
2013-01-03 06:32:00,37.0,33.0,29.59,North,-999,-999.0,-999.0,87,0.00,,,0.00,,2013-01-03 14:32:00,
2013-01-03 06:42:00,37.0,33.0,29.59,North,-999,-999.0,-999.0,87,0.00,,,0.00,,2013-01-03 14:42:00,
2013-01-03 07:12:00,36.0,33.0,29.61,North,-999,-999.0,-999.0,89,0.00,,,0.00,,2013-01-03 15:12:00,
2013-01-03 07:22:00,36.0,33.0,29.61,North,-999,-999.0,-999.0,89,0.00,,,0.00,,2013-01-03 15:22:00,
2013-01-03 07:33:00,36.0,33.0,29.61,North,-999,-999.0,-999.0,89,0.00,,,0.00,,2013-01-03 15:33:00,
2013-01-03 07:42:00,36.0,33.0,29.61,North,-999,-999.0,-999.0,89,0.00,,,0.00,,2013-01-03 15:42:00,
2013-01-03 08:12:00,36.0,33.0,29.62,North,-999,-999.0,-999.0,89,0.00,,,0.00,,2013-01-03 16:12:00,
2013-01-03 08:22:00,36.0,33.0,29.62,North,-999,-999.0,-999.0,89,0.00,,,0.00,,2013-01-03 16:22:00,
2013-01-03 08:33:00,36.0,33.0,29.62,North,-999,-999.0,-999.0,89,0.00,,,0.00,,2013-01-03 16:33:00,
2013-01-03 08:43:00,36.0,33.0,29.62,North,-999,-999.0,-999.0,89,0.00,,,0.00,,2013-01-03 16:43:00,
2013-01-03 10:13:00,47.0,35.0,29.63,North,-999,-999.0,-999.0,64,-99.99,,,0.00,,2013-01-03 18:13:00,
2013-01-03 10:22:00,47.0,35.0,29.63,North,-999,-999.0,-999.0,64,-99.99,,,0.00,,2013-01-03 18:22:00,
2013-01-03 10:33:00,47.0,35.0,29.63,North,-999,-999.0,-999.0,64,-99.99,,,0.00,,2013-01-03 18:33:00,
2013-01-03 10:42:00,47.0,35.0,29.63,North,-999,-999.0,-999.0,64,-99.99,,,0.00,,2013-01-03 18:42:00,
2013-01-03 10:45:00,48.0,36.0,29.63,North,-999,-999.0,-999.0,64,0.00,,,0.00,,2013-01-03 18:45:00,
2013-01-03 11:12:00,48.0,36.0,29.63,North,-999,-999.0,-999.0,64,0.00,,,0.00,,2013-01-03 19:12:00,
2013-01-03 12:12:00,52.0,37.0,29.61,North,-999,-999.0,-999.0,57,0.00,,,0.00,,2013-01-03 20:12:00,
2013-01-03 12:22:00,52.0,37.0,29.61,North,-999,-999.0,-999.0,57,0.00,,,0.00,,2013-01-03 20:22:00,
2013-01-03 12:33:00,52.0,37.0,29.61,North,-999,-999.0,-999.0,57,0.00,,,0.00,,2013-01-03 20:33:00,
2013-01-03 12:42:00,52.0,37.0,29.61,North,-999,-999.0,-999.0,57,0.00,,,0.00,,2013-01-03 20:42:00,
2013-01-03 12:45:00,53.0,37.0,29.58,North,-999,-999.0,-999.0,54,0.00,,,0.00,,2013-01-03 20:45:00,
2013-01-03 13:12:00,53.0,37.0,29.58,North,-999,-999.0,-999.0,54,0.00,,,0.00,,2013-01-03 21:12:00,
2013-01-03 13:22:00,53.0,37.0,29.58,North,-999,-999.0,-999.0,54,0.00,,,0.00,,2013-01-03 21:22:00,
2013-01-03 13:35:00,53.0,37.0,29.58,North,-999,-999.0,-999.0,54,0.00,,,0.00,,2013-01-03 21:35:00,
2013-01-03 14:12:00,56.0,38.0,29.57,North,-999,-999.0,-999.0,51,0.00,,,0.00,,2013-01-03 22:12:00,
2013-01-03 14:22:00,56.0,38.0,29.57,North,-999,-999.0,-999.0,51,0.00,,,0.00,,2013-01-03 22:22:00,
2013-01-03 14:32:00,56.0,38.0,29.57,North,-999,-999.0,-999.0,51,0.00,,,0.00,,2013-01-03 22:32:00,
2013-01-03 14:42:00,56.0,38.0,29.57,North,-999,-999.0,-999.0,51,0.00,,,0.00,,2013-01-03 22:42:00,
2013-01-03 15:12:00,57.0,39.0,29.58,North,-999,-999.0,-999.0,50,0.00,,,0.00,,2013-01-03 23:12:00,
2013-01-03 15:22:00,57.0,39.0,29.58,North,-999,-999.0,-999.0,50,0.00,,,0.00,,2013-01-03 23:22:00,
2013-01-03 15:32:00,57.0,39.0,29.58,North,-999,-999.0,-999.0,50,0.00,,,0.00,,2013-01-03 23:32:00,
2013-01-03 15:42:00,57.0,39.0,29.58,North,-999,-999.0,-999.0,50,0.00,,,0.00,,2013-01-03 23:42:00,
2013-01-03 16:12:00,57.0,39.0,29.57,North,-999,-999.0,-999.0,50,0.00,,,0.00,,2013-01-04 00:12:00,
2013-01-03 16:22:00,57.0,39.0,29.57,North,-999,-999.0,-999.0,50,0.00,,,0.00,,2013-01-04 00:22:00,
2013-01-03 16:32:00,57.0,39.0,29.57,North,-999,-999.0,-999.0,50,0.00,,,0.00,,2013-01-04 00:32:00,
2013-01-03 16:42:00,57.0,39.0,29.57,North,-999,-999.0,-999.0,50,0.00,,,0.00,,2013-01-04 00:42:00,
2013-01-03 17:12:00,51.0,39.0,29.59,North,-999,-999.0,-999.0,64,0.00,,,0.00,,2013-01-04 01:12:00,
2013-01-03 17:22:00,51.0,39.0,29.59,North,-999,-999.0,-999.0,64,0.00,,,0.00,,2013-01-04 01:22:00,
2013-01-03 17:32:00,51.0,39.0,29.59,North,-999,-999.0,-999.0,64,0.00,,,0.00,,2013-01-04 01:32:00,
2013-01-03 17:42:00,51.0,39.0,29.59,North,-999,-999.0,-999.0,64,0.00,,,0.00,,2013-01-04 01:42:00,
2013-01-03 18:12:00,49.0,40.0,29.60,North,-999,-999.0,-999.0,71,0.00,,,0.00,,2013-01-04 02:12:00,
2013-01-03 18:22:00,49.0,40.0,29.60,North,-999,-999.0,-999.0,71,0.00,,,0.00,,2013-01-04 02:22:00,
2013-01-03 18:32:00,49.0,40.0,29.60,North,-999,-999.0,-999.0,71,0.00,,,0.00,,2013-01-04 02:32:00,
2013-01-03 18:42:00,49.0,40.0,29.60,North,-999,-999.0,-999.0,71,0.00,,,0.00,,2013-01-04 02:42:00,
2013-01-03 19:12:00,46.0,39.0,29.61,North,-999,-999.0,-999.0,76,0.00,,,0.00,,2013-01-04 03:12:00,
2013-01-03 19:22:00,46.0,39.0,29.61,North,-999,-999.0,-999.0,76,0.00,,,0.00,,2013-01-04 03:22:00,
2013-01-03 19:32:00,46.0,39.0,29.61,North,-999,-999.0,-999.0,76,0.00,,,0.00,,2013-01-04 03:32:00,
2013-01-03 19:42:00,46.0,39.0,29.61,North,-999,-999.0,-999.0,76,0.00,,,0.00,,2013-01-04 03:42:00,
2013-01-03 20:12:00,44.0,37.0,29.63,North,-999,-999.0,-999.0,78,0.00,,,0.00,,2013-01-04 04:12:00,
2013-01-03 20:22:00,44.0,37.0,29.63,North,-999,-999.0,-999.0,78,0.00,,,0.00,,2013-01-04 04:22:00,
2013-01-03 20:32:00,44.0,37.0,29.63,North,-999,-999.0,-999.0,78,0.00,,,0.00,,2013-01-04 04:32:00,
2013-01-03 20:42:00,44.0,37.0,29.63,North,-999,-999.0,-999.0,78,0.00,,,0.00,,2013-01-04 04:42:00,
2013-01-03 21:12:00,43.0,36.0,29.63,North,-999,-999.0,-999.0,78,0.00,,,0.00,,2013-01-04 05:12:00,
2013-01-03 21:22:00,43.0,36.0,29.63,North,-999,-999.0,-999.0,78,0.00,,,0.00,,2013-01-04 05:22:00,
2013-01-03 21:33:00,43.0,36.0,29.63,North,-999,-999.0,-999.0,78,0.00,,,0.00,,2013-01-04 05:33:00,
2013-01-03 21:42:00,43.0,36.0,29.63,North,-999,-999.0,-999.0,78,0.00,,,0.00,,2013-01-04 05:42:00,
2013-01-03 22:12:00,42.0,36.0,29.65,North,-999,-999.0,-999.0,79,0.00,,,0.00,,2013-01-04 06:12:00,
2013-01-03 22:22:00,42.0,36.0,29.65,North,-999,-999.0,-999.0,79,0.00,,,0.00,,2013-01-04 06:22:00,
2013-01-03 22:32:00,42.0,36.0,29.65,North,-999,-999.0,-999.0,79,0.00,,,0.00,,2013-01-04 06:32:00,
2013-01-03 22:42:00,42.0,36.0,29.65,North,-999,-999.0,-999.0,79,0.00,,,0.00,,2013-01-04 06:42:00,
2013-01-03 23:12:00,40.0,35.0,29.67,North,-999,-999.0,-999.0,82,0.00,,,0.00,,2013-01-04 07:12:00,
2013-01-03 23:22:00,40.0,35.0,29.67,North,-999,-999.0,-999.0,82,0.00,,,0.00,,2013-01-04 07:22:00,
2013-01-03 23:32:00,40.0,35.0,29.67,North,-999,-999.0,-999.0,82,0.00,,,0.00,,2013-01-04 07:32:00,
2013-01-03 23:42:00,40.0,35.0,29.67,North,-999,-999.0,-999.0,82,0.00,,,0.00,,2013-01-04 07:42:00,